SCP
0 0 0 0 0 0 0 0 0 0 0 0 0 0 0 0 0 0 0 0 0 0 0 0 0 0 0 0 0 0 0 0 0 0 0 0 0 0 0 0 0 0 0
0 0 0 0 0 0 0 0 0 0 0 0 0 0 0 0 0 0 0 0 0 0 0 0 0 0 0 0 0 0 0 0 0 0 0 0 0 0 0 0 0 0 0
0 0 0 0 0 0 0 0 0 0 0 0 0 0 0 0 0 0 0 0 0 0 0 0 0 0 0 0 0 0 0 0 0 0 0 0 0 0 0 0 0 0 0
0 0 0 0 0 0 0 0 0 0 0 0 0 0 0 0 0 0 0 0 0 0 0 0 0 0 0 0 0 0 0 0 0 0 0 0 0 0 0 0 0 0 0
0 0 0 0 0 0 0 0 0 0 0 0 0 0 0 0 0 0 0 0 0 0 0 0 0 0 0 0 0 0 0 0 0 0 0 0 0 0 0 0 0 0 0
0 0 0 0 0 0 0 0 0 0 0 0 0 0 0 0 0 0 0 0 0 0 0 0 0 0 0 0 0 0 0 0 0 0 0 0 0 0 0 0 0 0 0
0 0 0 0 0 0 0 0 0 0 0 0 0 0 0 0 0 0 0 0 0 0 0 0 0 0 0 0 0 0 0 0 0 0 0 0 0 0 0 0 0 0 0
0 0 0 0 0 0 0 0 0 0 0 0 0 0 0 0 0 0 0 0 0 0 0 0 0 0 0 0 0 0 0 0 0 0 0 0 0 0 0 0 0 0 0
0 0 0 0 0 0 0 0 0 0 0 0 0 0 0 0 0 0 0 0 0 0 0 0 0 0 0 0 0 0 0 0 0 0 0 0 0 0 0 0 0 0 0
1 0 0 0 0 0 0 0 0 0 0 0 0 0 0 0 0 0 0 0 0 0 0 0 0 0 0 0 0 0 0 0 0 0 0 0 0 0 0 0 0 0 0
1 1 1 1 0 0 0 0 0 0 0 0 0 0 0 0 0 0 0 0 0 0 0 0 0 0 0 0 0 0 0 0 0 0 0 0 0 0 0 0 0 0 0
1 1 1 1 1 0 0 0 0 0 0 0 0 0 0 0 0 0 0 0 0 0 0 0 0 0 0 0 0 0 0 0 0 0 0 0 0 0 0 0 0 0 0
1 1 1 1 1 0 0 0 0 0 0 0 0 0 0 0 0 0 0 0 0 0 0 0 0 0 0 0 0 0 0 0 0 0 0 0 0 0 0 0 0 0 0
1 1 1 1 1 0 0 0 0 0 0 0 0 0 0 0 0 0 0 0 0 0 0 0 0 0 0 0 0 0 0 0 0 0 0 0 0 0 0 0 0 0 0
1 1 1 1 1 1 0 0 0 0 0 0 0 0 0 0 0 0 0 0 0 0 0 0 0 0 0 0 0 0 0 0 0 0 0 0 0 0 0 0 0 0 0
1 1 1 1 1 1 0 0 0 0 0 0 0 0 0 0 0 0 0 0 0 0 0 0 0 0 0 0 0 0 0 0 0 0 0 0 0 0 0 0 0 0 0
1 1 1 1 1 1 1 0 0 0 0 0 0 0 0 0 0 0 0 0 0 0 0 0 0 0 0 0 0 0 0 0 0 0 0 0 0 0 0 0 0 0 0
1 1 1 1 1 1 1 0 0 0 0 0 0 0 0 0 0 0 0 0 0 0 0 0 0 0 0 0 0 0 0 0 0 0 0 0 0 0 0 0 0 0 0
1 1 1 1 1 1 0 0 0 0 0 0 0 0 0 0 0 0 0 0 0 0 0 0 0 0 0 0 0 0 0 0 0 0 0 0 0 0 0 0 0 0 0
1 1 1 1 1 0 0 0 0 0 0 0 0 0 0 0 0 0 0 0 0 0 0 0 0 0 0 0 0 0 0 0 0 0 0 0 0 0 0 0 0 0 0
1 1 1 1 1 0 0 0 0 0 0 0 0 0 0 0 0 0 0 0 0 0 0 0 0 0 0 0 0 0 0 0 0 0 0 0 0 0 0 0 0 0 0
1 1 1 1 1 0 0 0 0 0 0 0 0 0 0 0 0 0 0 0 0 0 0 0 0 0 0 0 0 0 0 0 0 0 0 0 0 0 0 0 0 0 0
1 1 1 1 1 0 0 0 0 0 0 0 0 0 0 0 0 0 0 0 0 0 0 0 0 0 0 0 0 0 0 0 0 0 0 0 0 0 0 0 0 0 0
1 1 1 1 1 0 0 0 0 0 0 0 0 0 0 0 0 0 0 0 0 0 0 0 0 0 0 0 0 0 0 0 0 0 0 0 0 0 0 0 0 0 0
1 1 1 1 1 0 0 0 0 0 0 0 0 0 0 0 0 0 0 0 0 0 0 0 0 0 0 0 0 0 0 0 0 0 0 0 0 0 0 0 0 0 0
1 1 1 1 1 0 0 0 0 0 0 0 0 0 0 0 0 0 0 0 0 0 0 0 0 0 0 0 0 0 0 0 0 0 0 0 0 0 0 0 0 0 0
Wind_Speed
2 1 1 1 1 1 1 1 1 1 1 1 1 1 2 3 4 4 4 9 9 8 8 7 6 6 6 5 5 5 5 5 5 6 5 5 5 5 5 5 5 4 4
2 2 1 1 0 0 0 1 1 1 1 1 1 1 2 3 3 4 5 6 7 7 7 6 6 6 6 5 5 6 5 6 6 6 6 5 5 5 5 5 5 5 4
2 2 1 1 1 0 1 1 1 1 1 1 2 2 2 2 2 3 5 4 4 6 7 7 6 6 5 5 6 6 6 6 6 6 6 5 5 5 5 5 5 5 4
3 2 1 1 1 1 1 1 1 1 1 1 1 1 2 2 2 2 3 4 4 4 5 7 7 7 6 6 7 7 7 6 5 5 5 5 5 5 5 5 5 4 4
4 2 1 1 1 1 1 1 2 1 1 1 1 1 1 2 2 2 2 3 3 4 4 7 8 8 7 7 8 8 7 7 6 5 5 5 5 5 5 5 5 5 4
3 2 2 2 2 1 1 1 1 1 1 1 1 1 1 1 2 2 2 2 3 4 5 6 5 6 8 8 8 8 8 8 7 6 6 5 5 5 5 5 5 5 5
3 2 1 2 2 1 1 2 1 1 1 1 1 0 0 0 1 2 1 1 2 2 3 4 4 4 4 8 8 9 9 8 8 7 6 5 5 5 5 4 5 5 5
3 4 3 2 2 1 2 2 2 1 1 1 1 1 0 0 1 2 2 2 2 2 2 3 3 4 4 3 6 9 9 8 8 7 6 5 5 5 5 5 5 5 5
3 2 3 2 2 2 2 3 3 3 2 1 1 1 1 1 1 0 2 2 2 1 1 2 2 3 4 3 5 7 8 8 8 7 7 6 5 5 5 5 5 5 5
4 4 3 3 2 2 2 3 3 2 2 2 2 1 1 1 1 1 1 1 2 2 2 2 2 3 3 3 4 8 9 8 7 7 7 6 6 6 6 6 6 6 6
3 4 3 3 3 2 2 2 1 2 2 2 1 1 1 1 2 2 1 1 1 2 3 3 2 2 3 4 4 7 10 9 8 7 7 7 7 7 7 7 7 7 7
3 4 4 3 3 2 2 2 2 2 2 1 1 1 1 1 1 1 2 2 2 2 2 2 2 2 3 3 5 9 11 10 9 8 8 8 8 8 8 8 7 7 7
3 4 4 4 3 3 3 3 2 2 2 2 1 2 1 1 1 0 1 1 1 1 2 2 3 3 3 3 4 9 10 11 10 10 9 8 8 8 8 8 7 7 7
3 4 4 4 4 4 4 3 3 3 2 2 3 2 1 2 1 1 1 1 1 1 2 2 2 3 2 3 4 8 6 11 11 10 10 9 9 8 8 7 7 7 6
3 4 4 4 4 4 3 3 2 2 2 3 2 2 2 2 2 1 1 1 2 2 2 2 1 2 2 3 6 4 4 9 11 11 10 10 9 9 9 8 8 7 7
3 4 4 4 4 4 4 4 3 3 3 3 2 2 2 2 1 1 1 1 1 2 1 1 1 2 2 2 5 3 3 8 11 10 10 10 10 9 9 9 9 9 8
3 4 4 4 4 4 4 3 3 4 4 3 3 3 3 2 1 1 1 1 1 1 2 2 1 1 2 1 2 3 3 4 6 10 11 10 10 10 9 10 10 9 8
4 4 4 4 4 4 4 4 4 4 4 3 3 2 2 2 2 1 1 2 2 1 2 2 2 1 2 2 3 3 4 4 4 9 11 10 10 9 9 9 10 9 8
4 4 4 4 4 4 4 4 4 4 4 3 3 3 3 2 2 1 2 2 2 2 2 2 2 2 2 2 2 3 3 2 3 6 9 9 10 10 9 9 9 9 8
4 4 4 5 5 5 5 4 4 4 3 3 3 3 3 3 3 2 3 2 2 1 2 2 2 2 2 2 2 2 2 2 2 2 4 5 7 9 9 9 9 9 9
5 4 4 4 4 4 5 4 4 4 3 3 3 3 3 3 3 3 3 2 2 2 2 2 3 2 2 1 2 2 2 2 2 1 2 3 3 4 5 7 8 9 9
4 4 5 5 5 4 4 5 4 3 3 3 3 3 3 4 4 4 4 3 3 3 3 2 3 3 3 2 2 2 1 1 2 1 1 2 3 3 4 5 8 10 10
4 4 4 4 4 3 5 5 5 4 4 3 3 3 4 3 4 3 3 4 4 6 6 3 4 4 3 2 2 2 2 2 3 2 1 3 2 3 3 5 9 10 11
4 4 3 3 3 4 5 6 6 5 4 4 4 4 4 3 3 2 3 3 4 4 6 6 5 5 4 2 2 3 3 3 3 3 3 3 3 3 3 3 7 10 11
4 4 4 4 4 4 5 6 6 4 4 5 5 5 5 4 4 4 3 3 3 4 6 6 6 5 5 5 3 2 3 3 3 3 2 2 2 2 2 2 4 8 9
4 4 4 4 4 4 5 6 6 4 4 4 4 5 6 6 5 6 4 3 4 4 4 3 4 5 6 7 8 6 5 4 3 3 2 2 2 1 2 1 2 2 4
Wind_Direction
153 123 95 135 193 168 180 182 166 141 129 81 57 75 97 103 111 119 128 141 142 143 144 149 151 149 149 147 145 142 142 144 146 143 138 138 139 141 140 139 139 137 133
124 120 141 171 204 139 103 80 90 82 65 69 65 63 72 97 111 123 133 141 146 148 153 160 161 160 162 161 156 150 145 146 148 146 142 139 140 150 154 154 151 146 143
133 145 159 190 166 158 144 140 122 116 148 148 137 125 106 95 115 135 147 151 151 159 162 164 164 164 165 166 161 156 156 153 153 151 149 146 144 146 152 156 157 157 154
160 162 173 182 150 191 190 169 166 143 115 124 110 125 131 138 147 161 154 149 149 152 161 165 166 165 163 160 162 162 158 154 157 159 160 157 157 154 158 163 159 157 155
165 180 166 129 183 205 193 209 125 125 126 127 148 162 149 151 153 146 129 136 148 150 152 161 163 162 162 161 161 165 163 159 161 163 164 163 164 163 162 168 167 163 159
172 182 163 164 214 198 171 112 103 112 159 205 202 81 66 154 158 142 164 153 161 170 163 158 164 171 172 172 172 172 171 169 168 169 171 173 171 170 171 174 173 173 171
172 187 173 159 198 188 172 173 149 184 202 166 101 69 359 313 142 142 171 159 163 152 149 156 164 161 170 185 184 180 179 177 177 179 180 178 174 173 169 170 177 181 184
171 183 181 189 173 163 187 180 170 193 224 176 167 159 178 268 254 184 170 177 169 158 162 171 159 162 174 164 181 187 185 183 188 187 185 180 179 176 173 173 176 184 189
173 184 165 200 167 178 185 195 195 200 205 218 211 195 204 198 169 189 198 160 148 153 168 150 168 176 172 161 168 184 184 187 191 193 187 184 185 185 190 194 195 199 200
172 172 173 178 174 190 179 206 188 204 207 213 206 215 209 165 156 167 249 167 177 185 199 198 184 182 166 161 161 167 179 184 187 191 193 193 196 201 206 209 210 213 212
181 174 173 167 169 180 184 215 161 208 211 223 213 216 221 221 223 173 205 200 205 203 195 204 194 190 175 165 165 166 173 180 185 191 195 200 205 211 217 219 218 222 217
180 182 179 168 175 185 171 180 182 216 240 245 253 240 215 217 228 196 187 200 207 223 201 206 191 188 192 172 183 174 178 184 189 195 199 205 211 216 222 223 225 225 219
177 180 186 175 178 181 175 178 187 210 221 223 247 252 263 259 237 212 183 207 205 232 220 211 196 189 194 162 166 177 184 189 194 197 202 207 212 218 224 223 224 223 218
177 170 179 181 185 187 188 179 189 207 202 213 236 245 273 272 244 199 194 176 224 234 226 219 197 182 170 147 164 181 181 192 196 200 204 207 210 213 217 216 218 216 215
173 167 177 187 192 189 187 183 201 208 197 217 233 230 251 257 246 239 206 190 205 235 243 227 199 181 160 153 167 192 186 191 197 203 205 206 207 210 213 213 211 209 211
175 167 177 186 191 193 193 189 195 202 205 218 223 223 239 269 277 251 239 246 237 235 252 243 220 175 162 182 175 197 200 195 203 203 203 204 207 210 212 211 210 211 212
181 180 180 185 194 193 191 195 205 196 207 217 221 212 219 241 254 252 245 246 259 231 241 267 274 179 174 191 183 217 216 197 203 205 203 203 207 210 212 211 210 211 212
186 184 186 190 196 191 192 200 213 203 207 212 219 221 226 232 228 246 234 237 239 228 221 245 257 238 217 200 192 224 237 214 194 197 200 204 207 208 209 210 209 209 211
190 189 189 193 196 193 197 207 211 212 214 214 212 218 221 223 227 226 237 239 241 246 220 232 245 239 217 207 194 240 251 240 234 190 195 203 204 206 207 210 209 210 212
192 192 194 200 199 200 203 206 210 216 219 220 216 220 225 217 217 221 233 230 243 250 243 252 255 241 215 210 195 230 253 241 248 191 188 197 202 206 209 209 210 213 216
196 196 196 204 203 206 206 198 209 214 214 222 212 214 224 203 210 221 231 223 244 243 247 243 249 248 233 199 204 232 248 250 254 223 183 202 190 201 210 217 216 218 217
197 195 201 206 207 212 178 181 206 220 217 223 217 217 216 193 193 204 214 218 227 238 246 250 255 253 245 232 212 233 237 252 261 223 188 231 199 206 206 211 213 214 214
199 201 207 202 197 198 186 191 210 223 221 218 220 226 239 221 186 193 200 213 225 229 225 236 257 265 263 251 240 252 255 261 254 241 222 251 224 222 216 216 206 209 213
203 203 205 205 200 202 196 199 205 221 224 220 220 223 229 229 217 203 212 222 223 219 218 224 236 250 261 264 247 243 248 253 253 241 209 238 244 237 233 211 208 208 212
199 204 207 208 209 199 194 197 200 218 221 223 223 221 219 216 206 199 211 228 239 246 234 230 227 235 249 257 249 249 245 245 261 259 216 210 239 254 248 228 214 208 213
199 205 209 209 204 194 195 198 201 228 228 228 223 219 219 219 205 193 207 226 240 251 253 232 238 243 244 243 229 218 223 234 246 258 225 207 244 260 271 233 192 200 218